[[{"header":{"parameterUnit":"m.s-1","parameterCategory":1,"la1":30.2991,"la2":30.254,"lo1":-89.0895,"lo2":-89.0444,"dy":0.0017,"dx":0.0017,"nx":28,"ny":28,"refTime":"2023-09-10T03:00:00:Z","depth":0,"parameterNumber":2,"parameterNumberName":"U-component_of_WINDS"},"data":[0,0,0,0,0,0,0,0,0,0,0,0,0,0,0,0,0,0,0,0,0,0,0,0,0,0,0,0,0,0,0,0,0,0,0,0,0,0,0,0,0,0,0,0,0,0,0,0,0,0,0,0,0,0,0,0,0,0,-2.6191,-2.619,0,-2.6148,-2.6148,-2.6147,-2.609,-2.6089,-2.6088,-2.6087,-2.6043,-2.6043,-2.6043,0,0,0,0,0,0,0,0,0,0,0,0,0,-2.6224,-2.6224,-2.6191,-2.619,-2.619,-2.6148,-2.6147,-2.6147,-2.609,-2.6089,-2.6088,-2.6086,-2.6043,-2.6043,-2.6043,0,0,0,0,0,0,0,0,0,0,0,0,0,-2.6198,-2.6224,-2.6191,-2.6156,-2.6153,-2.6148,-2.6147,-2.6147,-2.609,-2.6089,-2.6087,-2.6086,-2.6043,-2.6043,-2.6043,-2.6069,0,0,-2.6041,-2.6041,0,0,0,0,0,0,0,0,-2.62,-2.6197,-2.6162,-2.6159,-2.6155,-2.6123,-2.6143,-2.6121,-2.6091,-2.6114,-2.6087,-2.6085,-2.6071,-2.6068,-2.6063,-2.6067,-2.6065,-2.6041,-2.6041,-2.6041,-2.6041,0,0,0,0,0,0,0,-2.6202,-2.6199,-2.6174,-2.6161,-2.6157,-2.6143,-2.6138,-2.6139,-2.6101,-2.6112,-2.6107,-2.6103,-2.6069,-2.6064,-2.6062,-2.6064,-2.6041,-2.6041,-2.6041,-2.6041,-2.6088,-2.609,0,0,0,0,0,0,-2.6209,-2.6201,-2.6175,-2.6172,-2.6174,-2.6144,-2.6138,-2.6134,-2.6101,-2.6094,-2.6104,-2.6101,-2.6065,-2.6062,-2.606,-2.6089,-2.6041,-2.6041,-2.604,-2.6087,-2.6089,-2.609,0,0,0,0,0,0,-2.621,-2.6207,-2.6177,-2.6185,-2.6181,-2.6145,-2.6141,-2.6134,-2.6129,-2.6095,-2.6088,-2.6106,-2.6064,-2.6061,-2.6067,-2.6086,-2.604,-2.604,-2.6085,-2.6087,-2.609,-2.6146,0,0,0,0,0,0,-2.6211,-2.6208,-2.6216,-2.6186,-2.618,-2.6184,-2.6142,-2.6135,-2.6129,-2.6123,-2.6095,-2.6089,-2.6063,-2.6068,-2.6067,-2.6085,-2.604,-2.6083,-2.6086,-2.6089,-2.6142,-2.615,-2.6156,0,0,0,0,0,-2.6212,-2.6234,-2.6217,-2.6214,-2.6191,-2.6185,-2.6182,-2.6151,-2.6131,-2.6139,-2.6118,-2.609,-2.6085,-2.6069,-2.6067,-2.6086,-2.6082,-2.6085,-2.6089,-2.6139,-2.6148,-2.6156,0,0,0,0,0,0,-2.6267,-2.6229,-2.621,-2.6222,-2.6208,-2.6176,-2.6186,-2.6162,-2.6153,-2.6148,-2.611,-2.6104,-2.6116,-2.6102,-2.6085,-2.611,-2.6079,-2.6083,-2.6118,-2.6127,-2.6134,-2.6136,-2.6039,0,0,0,0,0,-2.628,-2.6279,-2.6246,-2.626,-2.6254,-2.6222,-2.6218,-2.6196,-2.6179,-2.6172,-2.6151,-2.6136,-2.6131,-2.6128,-2.6122,-2.6141,-2.6134,-2.6152,-2.616,-2.6166,-2.6168,-2.6178,-2.6186,-2.6102,-2.6102,-2.6102,0,0,-2.6308,-2.6287,-2.6288,-2.6271,-2.6257,-2.6257,-2.6217,-2.6218,-2.6217,-2.6172,-2.6177,-2.6162,-2.6143,-2.6156,-2.616,-2.6144,-2.6191,-2.617,-2.6175,-2.6174,-2.6182,-2.619,-2.6197,-2.6104,-2.6103,-2.6103,0,0,-2.6358,-2.6342,-2.6352,-2.634,-2.6319,-2.6298,-2.6301,-2.6273,-2.6261,-2.6266,-2.6232,-2.6232,-2.6224,-2.6212,-2.6205,-2.6254,-2.6228,-2.6253,-2.629,-2.63,-2.6306,-2.6312,-2.6329,-2.6336,-2.6256,-2.6257,-2.6257,0,-2.6394,-2.6392,-2.6361,-2.6364,-2.6358,-2.6319,-2.6329,-2.6318,-2.6297,-2.6294,-2.6276,-2.6267,-2.6251,-2.6261,-2.6273,-2.6269,-2.6271,-2.6255,-2.6308,-2.6313,-2.6318,-2.6334,-2.6341,-2.626,-2.6259,-2.6259,-2.6259,0,-2.6439,-2.6438,-2.6449,-2.643,-2.6425,-2.6432,-2.6402,-2.6402,-2.6381,-2.6362,-2.6368,-2.6348,-2.6338,-2.6339,-2.6318,-2.6347,-2.6337,-2.6315,-2.6283,-2.633,-2.6344,-2.635,-2.6264,-2.6263,-2.6262,-2.6261,0,0,-2.6518,-2.6484,-2.6488,-2.648,-2.6456,-2.6455,-2.6462,-2.6452,-2.6452,-2.6439,-2.6444,-2.644,-2.6419,-2.6411,-2.6389,-2.6398,-2.6439,-2.6374,-2.6373,-2.6386,-2.6469,-2.6486,-2.6493,-2.6422,-2.6424,-2.6424,-2.6471,0,-2.6563,-2.6571,-2.6544,-2.6559,-2.6559,-2.6523,-2.6529,-2.6515,-2.6499,-2.6497,-2.6479,-2.6476,-2.6449,-2.6444,-2.6452,-2.6432,-2.6455,-2.6429,-2.6426,-2.6426,-2.643,-2.6501,-2.6517,-2.6562,-2.6476,-2.6477,-2.6478,0,-2.6615,-2.6606,-2.6622,-2.6598,-2.6597,-2.6603,-2.6592,-2.6591,-2.6576,-2.6563,-2.6556,-2.6531,-2.6537,-2.6508,-2.6516,-2.6499,-2.6497,-2.6488,-2.6489,-2.6486,-2.6454,-2.6499,-2.6575,-2.6582,-2.6486,-2.6486,-2.6485,0,-2.6671,-2.6663,-2.6672,-2.6666,-2.6639,-2.6644,-2.6633,-2.6616,-2.6613,-2.6604,-2.6602,-2.6594,-2.659,-2.6585,-2.656,-2.6541,-2.657,-2.6539,-2.656,-2.6561,-2.6566,-2.6565,-2.6642,-2.6567,-2.6567,-2.6567,-2.6567,0,-2.6722,-2.6733,-2.6696,-2.6701,-2.6713,-2.6683,-2.6695,-2.6681,-2.6667,-2.667,-2.6639,-2.6642,-2.6609,-2.6608,-2.6589,-2.6598,-2.6597,-2.6587,-2.6581,-2.6589,-2.659,-2.6585,-2.6581,-2.6569,-2.6568,-2.6568,-2.6568,0,-2.6786,-2.6762,-2.6768,-2.6744,-2.6738,-2.6747,-2.6726,-2.673,-2.6713,-2.6717,-2.6716,-2.6689,-2.6687,-2.6662,-2.6654,-2.6641,-2.6658,-2.6647,-2.6663,-2.6659,-2.6681,-2.6679,-2.6756,-2.6764,-2.6685,-2.6686,-2.6687,0,-2.6819,-2.6827,-2.6803,-2.6803,-2.6794,-2.6793,-2.679,-2.6762,-2.6759,-2.6744,-2.675,-2.6746,-2.6741,-2.674,-2.672,-2.6715,-2.6703,-2.6731,-2.6702,-2.671,-2.6703,-2.6702,-2.6703,-2.6736,-2.6737,-2.6738,-2.6739,0,-2.6881,-2.6869,-2.6865,-2.6859,-2.6856,-2.6848,-2.6839,-2.6841,-2.681,-2.681,-2.6808,-2.6804,-2.6798,-2.6794,-2.6786,-2.6775,-2.6752,-2.6748,-2.6753,-2.6759,-2.6768,-2.6763,-2.6678,-2.6746,-2.6745,-2.6745,-2.6744,-2.6744,-2.6929,-2.6935,-2.692,-2.6917,-2.6908,-2.6901,-2.6904,-2.6888,-2.6886,-2.6878,-2.6862,-2.6863,-2.685,-2.6836,-2.6828,-2.6829,-2.6815,-2.6821,-2.6823,-2.6824,-2.6828,-2.677,-2.6828,-2.6827,-2.6827,-2.6827,-2.6827,0,-2.6989,-2.6978,-2.6976,-2.6965,-2.6964,-2.6944,-2.6934,-2.6933,-2.6935,-2.6924,-2.6921,-2.6919,-2.6917,-2.6898,-2.6893,-2.6897,-2.6887,-2.6897,-2.6895,-2.6894,-2.6841,-2.6838,-2.6906,-2.6906,-2.6906,-2.6906,-2.6906,-2.6906,-2.702,-2.7028,-2.7015,-2.702,-2.7009,-2.7009,-2.7005,-2.6999,-2.6991,-2.6991,-2.6989,-2.6977,-2.6963,-2.6958,-2.6955,-2.6949,-2.6949,-2.6962,-2.6953,-2.6905,-2.6897,-2.689,-2.6886,-2.6963,-2.6963,-2.7005,-2.7006,-2.7006]},{"header":{"parameterUnit":"m.s-1","parameterCategory":1,"la1":30.2991,"la2":30.254,"lo1":-89.0895,"lo2":-89.0444,"dy":0.0017,"dx":0.0017,"nx":28,"ny":28,"refTime":"2023-09-10T03:00:00:Z","depth":0,"parameterNumber":3,"parameterNumberName":"V-component_of_WINDS"},"data":[0,0,0,0,0,0,0,0,0,0,0,0,0,0,0,0,0,0,0,0,0,0,0,0,0,0,0,0,0,0,0,0,0,0,0,0,0,0,0,0,0,0,0,0,0,0,0,0,0,0,0,0,0,0,0,0,0,0,2.4435,2.4435,0,2.4455,2.4455,2.4455,2.4502,2.4503,2.4504,2.4505,2.4521,2.4521,2.452,0,0,0,0,0,0,0,0,0,0,0,0,0,2.4434,2.4433,2.4435,2.4435,2.4435,2.4455,2.4455,2.4455,2.4502,2.4503,2.4504,2.4505,2.4521,2.4521,2.452,0,0,0,0,0,0,0,0,0,0,0,0,0,2.4442,2.4433,2.4435,2.4461,2.4464,2.4455,2.4455,2.4456,2.4501,2.4503,2.4504,2.4506,2.4521,2.4521,2.452,2.4486,0,0,2.4518,2.4518,0,0,0,0,0,0,0,0,2.4441,2.4442,2.4457,2.4459,2.4462,2.4478,2.4461,2.4466,2.4501,2.4487,2.4505,2.4506,2.4505,2.4506,2.4506,2.4487,2.4488,2.4518,2.4517,2.4517,2.4517,0,0,0,0,0,0,0,2.4441,2.4441,2.4443,2.4457,2.446,2.4471,2.4473,2.4462,2.4487,2.4488,2.4492,2.4494,2.4507,2.4507,2.4507,2.4488,2.4518,2.4517,2.4517,2.4516,2.4443,2.4441,0,0,0,0,0,0,2.4437,2.444,2.4442,2.4443,2.4455,2.447,2.4473,2.4471,2.4488,2.4492,2.4492,2.4496,2.4507,2.4508,2.4508,2.4469,2.4517,2.4516,2.4516,2.4444,2.4442,2.4441,0,0,0,0,0,0,2.4437,2.4437,2.4441,2.4443,2.4444,2.4468,2.4466,2.4471,2.4471,2.4491,2.4495,2.4488,2.4509,2.4509,2.4492,2.447,2.4516,2.4515,2.4446,2.4443,2.4441,2.4392,0,0,0,0,0,0,2.4436,2.4436,2.4424,2.4442,2.4444,2.4426,2.4465,2.447,2.447,2.4474,2.4488,2.4491,2.451,2.4493,2.4491,2.447,2.4515,2.4448,2.4445,2.4442,2.4395,2.4388,2.4382,0,0,0,0,0,2.4436,2.4409,2.4423,2.4423,2.443,2.4424,2.4425,2.4448,2.4468,2.4456,2.4469,2.4491,2.4473,2.449,2.4489,2.4468,2.4449,2.4446,2.4442,2.4398,2.4389,2.4382,0,0,0,0,0,0,2.4385,2.4411,2.4428,2.4406,2.4413,2.4432,2.4417,2.4438,2.4438,2.4442,2.4469,2.4472,2.4451,2.4458,2.4476,2.4436,2.4465,2.4461,2.4432,2.4424,2.4417,2.4415,2.4514,0,0,0,0,0,2.4372,2.4367,2.4389,2.4367,2.437,2.4393,2.4391,2.4409,2.4416,2.4419,2.4431,2.4436,2.4432,2.4429,2.4426,2.4397,2.44,2.4382,2.4375,2.437,2.4365,2.435,2.4342,2.4429,2.4429,2.4429,0,0,2.4343,2.4357,2.4351,2.4357,2.4365,2.4357,2.4395,2.4385,2.438,2.4417,2.4402,2.4411,2.4419,2.4396,2.4386,2.4401,2.4342,2.4365,2.4361,2.4359,2.4346,2.4338,2.433,2.4427,2.4427,2.4428,0,0,2.4287,2.4298,2.428,2.4288,2.4299,2.4315,2.4311,2.4328,2.4335,2.4321,2.4349,2.4342,2.4335,2.4339,2.434,2.4288,2.4308,2.4286,2.425,2.4235,2.4228,2.4222,2.4202,2.4195,2.4282,2.4282,2.4282,0,2.425,2.4241,2.4268,2.4258,2.4259,2.4295,2.4277,2.4282,2.4291,2.4291,2.4308,2.4299,2.4307,2.4286,2.4273,2.4273,2.4269,2.4284,2.4227,2.4221,2.4216,2.4198,2.419,2.4279,2.428,2.428,2.428,0,2.4194,2.4187,2.4172,2.4182,2.4182,2.4167,2.4192,2.4188,2.4206,2.4219,2.4204,2.4215,2.4216,2.4212,2.4228,2.4193,2.4202,2.4223,2.4252,2.4205,2.4188,2.4181,2.4275,2.4276,2.4277,2.4278,0,0,2.4104,2.4131,2.4125,2.413,2.4146,2.4141,2.4128,2.413,2.4126,2.4131,2.412,2.4114,2.4134,2.4135,2.4153,2.414,2.4097,2.4163,2.4163,2.4149,2.4057,2.404,2.4031,2.4111,2.411,2.4109,2.4056,0,2.4051,2.4031,2.4056,2.4031,2.4025,2.4059,2.4048,2.4056,2.4069,2.4065,2.4079,2.4074,2.4101,2.4102,2.4091,2.4104,2.4078,2.4109,2.4099,2.4099,2.4095,2.4023,2.4004,2.3954,2.4049,2.4048,2.4048,0,2.3985,2.3989,2.3964,2.3982,2.398,2.397,2.3974,2.397,2.398,2.399,2.3993,2.4014,2.4002,2.4032,2.4015,2.4035,2.4033,2.4039,2.4038,2.4037,2.4069,2.4018,2.3938,2.393,2.4038,2.4038,2.4039,0,2.3921,2.392,2.3905,2.3908,2.3929,2.3921,2.3929,2.3941,2.3941,2.3944,2.3944,2.3945,2.3945,2.3945,2.3966,2.3986,2.3946,2.3978,2.3953,2.3952,2.3941,2.3941,2.3859,2.3943,2.3943,2.3943,2.3943,0,2.3858,2.384,2.3877,2.3867,2.3848,2.3877,2.3858,2.3869,2.388,2.3872,2.3902,2.3894,2.3923,2.3918,2.3935,2.3918,2.3918,2.3925,2.3929,2.3921,2.392,2.3919,2.3922,2.3941,2.3941,2.3942,2.3942,0,2.3782,2.3806,2.3791,2.3813,2.3818,2.3803,2.3822,2.3813,2.3829,2.3819,2.3818,2.3842,2.3838,2.386,2.3859,2.387,2.3844,2.3855,2.3841,2.3844,2.3817,2.3819,2.373,2.3719,2.3811,2.381,2.3809,0,2.3739,2.3727,2.3748,2.3746,2.3753,2.3749,2.3749,2.3778,2.3777,2.3788,2.3777,2.3776,2.3776,2.3768,2.3784,2.3784,2.3794,2.3763,2.3794,2.3786,2.3792,2.3792,2.379,2.3755,2.3754,2.3753,2.3753,0,2.366,2.3673,2.3673,2.3677,2.3677,2.3681,2.3687,2.3684,2.3714,2.3711,2.3708,2.3709,2.3709,2.3706,2.371,2.3717,2.3739,2.3743,2.3737,2.3728,2.372,2.3723,2.3822,2.3745,2.3745,2.3746,2.3746,2.3747,2.3599,2.3589,2.3603,2.3602,2.361,2.3616,2.3609,2.3625,2.3623,2.3626,2.3643,2.3636,2.3647,2.3654,2.3659,2.3654,2.3669,2.366,2.3658,2.3655,2.365,2.3722,2.3655,2.3655,2.3655,2.3656,2.3656,0,2.352,2.3532,2.3531,2.3539,2.3538,2.3562,2.357,2.3567,2.3562,2.357,2.3571,2.3567,2.3565,2.3583,2.3583,2.3575,2.3585,2.3574,2.3574,2.3575,2.3637,2.3642,2.3566,2.3566,2.3566,2.3566,2.3566,2.3566,2.3479,2.3465,2.3479,2.3469,2.348,2.3475,2.3478,2.3483,2.349,2.3485,2.3484,2.3496,2.3508,2.351,2.3509,2.3514,2.3512,2.3497,2.3505,2.3562,2.3571,2.3579,2.3584,2.3497,2.3497,2.3444,2.3444,2.3443]}]]